Time,TemperatureF,DewpointF,PressureIn,WindDirection,WindDirectionDegrees,WindSpeedMPH,WindSpeedGustMPH,Humidity,HourlyPrecipIn,Conditions,Clouds,dailyrainin,SoftwareType,DateUTC
2013-08-28 13:14:00,78.0,67.0,-100.00,East,80,0.0,0.0,69,0.00,,,0.00,,2013-08-28 17:14:00,
2013-08-28 13:24:00,77.0,66.0,-100.00,East,80,0.0,0.0,69,0.00,,,0.01,,2013-08-28 17:24:00,
2013-08-28 13:52:00,75.0,68.0,-100.00,East,80,0.0,0.0,79,0.00,,,0.01,,2013-08-28 17:52:00,
2013-08-28 14:12:00,74.0,68.0,-100.00,East,80,0.0,0.0,83,0.00,,,0.03,,2013-08-28 18:12:00,
2013-08-28 14:22:00,74.0,69.0,-100.00,East,80,0.0,0.0,85,0.00,,,0.03,,2013-08-28 18:22:00,
2013-08-28 14:42:00,73.0,69.0,-100.00,East,80,0.0,0.0,88,0.00,,,0.24,,2013-08-28 18:42:00,
2013-08-28 14:53:00,72.0,69.0,-100.00,East,80,0.0,0.0,89,0.00,,,0.71,,2013-08-28 18:53:00,
2013-08-28 15:12:00,71.0,69.0,-100.00,East,80,0.0,0.0,92,0.00,,,1.15,,2013-08-28 19:12:00,
2013-08-28 15:22:00,71.0,69.0,-100.00,East,80,0.0,0.0,92,0.00,,,1.19,,2013-08-28 19:22:00,
2013-08-28 15:42:00,72.0,70.0,-100.00,East,80,0.0,0.0,93,0.00,,,1.22,,2013-08-28 19:42:00,
2013-08-28 15:52:00,72.0,70.0,-100.00,East,80,0.0,0.0,93,0.00,,,1.22,,2013-08-28 19:52:00,
2013-08-28 16:12:00,72.0,70.0,-100.00,East,80,0.0,0.0,93,0.00,,,1.40,,2013-08-28 20:12:00,
2013-08-28 16:23:00,73.0,71.0,-100.00,East,80,0.0,0.0,93,0.00,,,1.40,,2013-08-28 20:23:00,
2013-08-28 16:43:00,73.0,71.0,-100.00,East,80,0.0,0.0,93,0.00,,,1.40,,2013-08-28 20:43:00,
2013-08-28 16:52:00,73.0,71.0,-100.00,East,80,0.0,0.0,93,0.00,,,1.40,,2013-08-28 20:52:00,
2013-08-28 17:12:00,73.0,71.0,-100.00,East,80,0.0,0.0,93,0.00,,,1.40,,2013-08-28 21:12:00,
2013-08-28 17:22:00,73.0,71.0,-100.00,East,80,0.0,0.0,93,0.00,,,1.40,,2013-08-28 21:22:00,
2013-08-28 17:57:00,74.0,72.0,-100.00,East,80,0.0,0.0,93,0.00,,,1.40,,2013-08-28 21:57:00,
2013-08-28 18:15:00,74.0,72.0,-100.00,East,80,0.0,0.0,92,0.00,,,1.40,,2013-08-28 22:15:00,
2013-08-28 18:25:00,74.0,72.0,-100.00,East,80,0.0,0.0,92,0.00,,,1.40,,2013-08-28 22:25:00,
2013-08-28 18:43:00,74.0,71.0,-100.00,East,80,0.0,0.0,91,0.00,,,1.40,,2013-08-28 22:43:00,
2013-08-28 18:54:00,74.0,72.0,-100.00,East,80,0.0,0.0,92,0.00,,,1.40,,2013-08-28 22:54:00,
2013-08-28 19:13:00,74.0,71.0,-100.00,East,80,0.0,0.0,91,0.00,,,1.40,,2013-08-28 23:13:00,
2013-08-28 19:22:00,74.0,72.0,-100.00,East,80,0.0,0.0,92,0.00,,,1.40,,2013-08-28 23:22:00,
2013-08-28 19:42:00,74.0,72.0,-100.00,East,80,0.0,0.0,92,0.00,,,1.40,,2013-08-28 23:42:00,
2013-08-28 19:53:00,73.0,71.0,-100.00,East,80,0.0,0.0,92,0.00,,,1.41,,2013-08-28 23:53:00,
2013-08-28 20:12:00,73.0,71.0,-100.00,East,80,0.0,0.0,92,0.00,,,1.42,,2013-08-29 00:12:00,
2013-08-28 21:13:00,73.0,71.0,-100.00,East,80,0.0,0.0,93,0.00,,,1.42,,2013-08-29 01:13:00,
2013-08-28 21:22:00,72.0,70.0,-100.00,East,80,0.0,0.0,93,0.00,,,1.42,,2013-08-29 01:22:00,
2013-08-28 21:42:00,72.0,70.0,-100.00,East,80,0.0,0.0,94,0.00,,,1.42,,2013-08-29 01:42:00,
2013-08-28 21:52:00,72.0,70.0,-100.00,East,80,0.0,0.0,94,0.00,,,1.42,,2013-08-29 01:52:00,
2013-08-28 22:12:00,72.0,70.0,-100.00,East,80,0.0,0.0,94,0.00,,,1.42,,2013-08-29 02:12:00,
2013-08-28 22:22:00,72.0,70.0,-100.00,East,80,0.0,0.0,94,0.00,,,1.42,,2013-08-29 02:22:00,
2013-08-28 23:11:00,71.0,69.0,-100.00,East,80,0.0,0.0,94,0.00,,,1.42,,2013-08-29 03:11:00,
2013-08-28 23:23:00,71.0,69.0,-100.00,East,80,0.0,0.0,94,0.00,,,1.42,,2013-08-29 03:23:00,
2013-08-28 23:45:00,70.0,68.0,-100.00,East,80,0.0,0.0,94,0.00,,,1.42,,2013-08-29 03:45:00,
2013-08-28 23:57:00,70.0,68.0,-100.00,East,80,0.0,0.0,94,0.00,,,1.42,,2013-08-29 03:57:00,